Weather History for Peachtree City, GA

Change the Weather History Date:

Tuesday, November 13, 2012

  Actual Average Record
Temperature  
Mean Temperature 46 °F 54 °F  
Max Temperature 57 °F 66 °F 73 °F (2007)
Min Temperature 34 °F 41 °F 26 °F (2013)
Degree Days  
Heating Degree Days 19 12  
Month to date heating degree days 133  
Since 1 July heating degree days 299  
Cooling Degree Days 0 0  
Month to date cooling degree days 2  
Year to date cooling degree days 1650  
Moisture  
Dew Point 33 °F    
Average Humidity 65    
Maximum Humidity 92    
Minimum Humidity 33    
Precipitation  
Precipitation 0.00 in 0.14 in 1.69 in (1997)
Month to date precipitation 1.55  
Snow  
Snow 0.00 in - - ()
Month to date snowfall  
Since 1 July snowfall  
Since 1 September snowfall  
Snow Depth -    
Sea Level Pressure  
Sea Level Pressure 30.30 in    
Wind  
Wind Speed 9 mph (NW)    
Max Wind Speed 14 mph    
Max Gust Speed 20 mph    
Visibility 10 miles    
Events      
T = Trace of Precipitation, MM = Missing Value Source: NWS Daily Summary

Daily Weather History Graph

Daily Weather History Graph

Search for Another Location

Airport:

Trip Planner

Search our weather history database for the weather conditions in past years. The results will help you decide how hot, cold, wet, or windy it might be!

Date:

Astronomy

Nov. 13, 2012 Rise Set
Actual Time 7:08 AM EST 5:36 PM EST
Civil Twilight 6:41 AM EST 6:03 PM EST
Nautical Twilight 6:11 AM EST 6:32 PM EST
Astronomical Twilight 5:42 AM EST 7:02 PM EST
Moon 6:44 AM EST (11/13) 5:30 PM EST (11/13)
Length of Visible Light 11h 21m
Length of Day
10h 28m
Waning Crescent, 0% of the Moon is Illuminated
Nov 13
Waning Crescent
Nov 13
New
Nov 20
First Quarter
Nov 28
Full
Dec 6
Last Quarter

Hourly Weather History & Observations

Time (EST) Temp. Windchill Dew Point Humidity Pressure Visibility Wind Dir Wind Speed Gust Speed Precip Events Conditions
12:43 AM 48.2 °F - 44.6 °F 87% 30.28 in 10.0 mi NW 13.8 mph 19.6 mph N/A   Overcast
12:53 AM 48.0 °F - 43.0 °F 83% 30.28 in 10.0 mi NW 9.2 mph - N/A   Overcast
1:53 AM 46.0 °F 40.2 °F 37.9 °F 73% 30.27 in 10.0 mi NW 12.7 mph - N/A   Overcast
2:53 AM 45.0 °F 39.3 °F 35.1 °F 68% 30.27 in 10.0 mi NNW 11.5 mph - N/A   Overcast
3:53 AM 43.0 °F 36.8 °F 34.0 °F 71% 30.27 in 10.0 mi NW 11.5 mph - N/A   Overcast
4:53 AM 39.0 °F 33.4 °F 33.1 °F 79% 30.29 in 10.0 mi NW 8.1 mph - N/A   Partly Cloudy
5:53 AM 37.0 °F 29.8 °F 32.0 °F 82% 30.30 in 10.0 mi NW 10.4 mph - N/A   Clear
6:53 AM 35.1 °F 29.3 °F 30.0 °F 82% 30.31 in 10.0 mi NW 6.9 mph - N/A   Clear
7:53 AM 36.0 °F 31.1 °F 30.0 °F 79% 30.34 in 10.0 mi NW 5.8 mph - N/A   Clear
8:53 AM 39.9 °F 32.9 °F 28.9 °F 65% 30.34 in 10.0 mi NW 11.5 mph - N/A   Clear
9:53 AM 45.0 °F 39.3 °F 30.0 °F 56% 30.35 in 10.0 mi NW 11.5 mph - N/A   Clear
10:53 AM 48.9 °F - 28.9 °F 46% 30.34 in 10.0 mi NW 10.4 mph - N/A   Clear
11:53 AM 52.0 °F - 28.9 °F 41% 30.32 in 10.0 mi WNW 6.9 mph - N/A   Clear
12:53 PM 55.0 °F - 28.0 °F 35% 30.29 in 10.0 mi NNE 8.1 mph - N/A   Clear
1:53 PM 57.9 °F - 28.9 °F 33% 30.27 in 10.0 mi NNW 12.7 mph - N/A   Clear
2:53 PM 57.9 °F - 30.0 °F 35% 30.26 in 10.0 mi NNW 8.1 mph - N/A   Clear
3:53 PM 57.9 °F - 30.0 °F 35% 30.26 in 10.0 mi North 6.9 mph 17.3 mph N/A   Clear
4:53 PM 55.9 °F - 28.9 °F 36% 30.27 in 10.0 mi NNW 10.4 mph - N/A   Clear
5:53 PM 50.0 °F - 30.9 °F 48% 30.28 in 10.0 mi NNW 6.9 mph - N/A   Clear
6:53 PM 45.0 °F 41.8 °F 34.0 °F 65% 30.30 in 10.0 mi NW 5.8 mph - N/A   Clear
7:53 PM 39.9 °F - 35.1 °F 83% 30.32 in 10.0 mi Calm Calm - N/A   Clear
8:53 PM 39.9 °F - 34.0 °F 79% 30.32 in 10.0 mi Calm Calm - N/A   Clear
9:53 PM 39.0 °F - 33.1 °F 79% 30.33 in 10.0 mi Calm Calm - N/A   Clear
10:53 PM 36.0 °F - 33.1 °F 89% 30.33 in 10.0 mi Calm Calm - N/A   Clear
11:53 PM 34.0 °F - 32.0 °F 92% 30.32 in 10.0 mi Calm Calm - N/A   Clear